Hourly Data Report for May 02, 2012

All times are specified in Local Standard Time (LST). Add 1 hour to adjust for Daylight Saving Time where and when it is observed.

HAMILTON A
ONTARIO

43°10'25.000" N
79°56'06.000" W
237.70 m
6153193
71263
YHM

Download Data

Hourly Data (May 2012)
Hourly Data Report for May 2, 2012
Temp Definition
°C
Dew Point Temp Definition
°C
Rel Hum Definition
%
Wind Dir Definition
10's deg

Wind Spd Definition
km/h
Visibility Definition
km
Stn Press Definition
kPa
Hmdx Definition


Wind Chill Definition


Weather Definition


TIME
00:00 Legend Double Dagger 7.1 7.0 99 7 6 2.0 98.88     Fog
01:00 Legend Double Dagger 6.8 6.8 100 4 9 8.1 98.79     Fog
02:00 Legend Double Dagger 7.9 7.8 99 4 8 8.1 98.80     Fog
03:00 Legend Double Dagger 8.1 8.0 99 6 12 6.4 98.78     Fog
04:00 Legend Double Dagger 7.9 7.3 96 5 18 6.4 98.76     Fog
05:00 Legend Double Dagger 7.0 6.9 99 5 13 0.6 98.80     Fog
06:00 Legend Double Dagger 7.2 7.2 100 4 14 0.2 98.82     Fog
07:00 Legend Double Dagger 8.3 8.3 100 4 22 2.8 98.82     Fog
08:00 Legend Double Dagger 9.2 8.8 97 5 23 2.8 98.82     Fog
09:00 Legend Double Dagger 9.6 8.4 92 5 26 2.8 98.84     Fog
10:00 Legend Double Dagger 11.4 8.5 82 6 20 4.8 98.82     Fog,Haze
11:00 Legend Double Dagger 13.6 9.5 76 4 19 10.0 98.79     LegendNANA
12:00 Legend Double Dagger 12.2 8.9 80 5 17 10.0 98.74     LegendNANA
13:00 Legend Double Dagger 14.2 9.9 75 5 12 10.0 98.68     Mostly Cloudy
14:00 Legend Double Dagger 15.2 10.2 72 6 11 8.1 98.61     Haze
15:00 Legend Double Dagger 13.7 9.4 75 3 15 8.1 98.51     Haze
16:00 Legend Double Dagger 14.3 9.8 74 6 14 9.7 98.46     Haze
17:00 Legend Double Dagger 14.6 11.4 81 9 10 6.4 98.42     Rain Showers,Haze
18:00 Legend Double Dagger 15.0 11.6 80 1 10 9.7 98.43     Haze
19:00 Legend Double Dagger 14.7 11.5 81 1 20 9.7 98.43     Haze
20:00 Legend Double Dagger 11.3 8.9 85 3 7 10.0 98.47     LegendNANA
21:00 Legend Double Dagger 11.5 9.1 85 12 4 10.0 98.52     LegendNANA
22:00 Legend Double Dagger 10.3 9.1 92 3 4 10.0 98.60     Clear
23:00 Legend Double Dagger 11.4 9.2 86   0 10.0 98.62     LegendNANA

Notes on Data Quality.

Legend

  • E = Estimated
  • M = Missing
  • NA = Not Available
  • ‡ = Partner data that is not subject to review by the National Climate Archives
Date modified: